Location: Biharia
(46.4333°N, 22.8000°E)
Time: 05:20:44
(UTC+00:00)

Okean-O - Pass Details

Date: 27 May 2022
Orbit: 638 x 640 km, 98.1° (Epoch: 01 July)

Event Time Altitude Azimuth Distance (km) Brightness Sun altitude
Rises 19:07:12 0° 205° (SSW) 2,932 5.8 -8.7°
Reaches altitude 10° 19:09:59 10° 223° (SW) 2,029 5.2 -9.0°
Maximum altitude 19:13:05 19° 268° (W) 1,542 5.2 -9.4°
Drops below altitude 10° 19:16:13 10° 313° (NW) 2,040 6.9 -9.8°
Sets 19:19:02 0° 332° (NNW) 2,955 7.8 -10.1°
